sat.trackr.live / text

‹ back to catalog

M2 PATHFINDER

NORAD 45727 · 2020-037E

PAYLOAD ACTIVE UNKNOWN

§ Identity

Operator
Country
AUS
Launch date
2020-06-13
Launch site
RLLB
Launch vehicle
Mass (kg)
RCS (m²)

Purposes: tech_demo

External: N2YO · Heavens-Above · Gunter

§ Orbital elements

Epoch: 2026-05-25T02:28:29.415936Z

Period
95.71 min
Inclination
97.8150°
Eccentricity
0.0010359
Mean motion
15.04552405 rev/d
Perigee alt
545.7 km
Apogee alt
560.1 km
Semi-major
6,931.0 km
B*
9.1845e-5
RAAN
336.0769°
Arg perigee
226.0206°
Mean anomaly
134.0166°
Rev number
32,202

§ Raw data

M2 PATHFINDER1 45727U 20037E   26145.10311824  .00001225  00000+0  91845-4 0  99952 45727  97.8150 336.0769 0010359 226.0206 134.0166 15.04552405322028

JSON: /api/v1/satellites/45727 · /tle

For live sub-satellite position, see the globe view (requires WebGL).

§ Visibility from observer

Set your observer location to see the next 7 days of passes ≥ 10°. The values pass through the URL so the page stays shareable.

No JS? Fill the form by hand. The geolocation button needs JavaScript.

§ Radio — SatNOGS DB

ModeDescriptionDownlinkUplink
FSK TLM 449.538 MHz

1 transmitter · refreshed weekly from db.satnogs.org